• In Uzbekistan
  • List of Countries
  • For 7 days
  • Water Temperature
  • Satellite Maps
  • Weather Map
  • Weather Widgets
  • user-avatar
    Login

    Hourly Weather Wiktoria

    Today, 19 January, Thursday

    Time Temperature Precipitation Wind Pressure Humidity
    00:00 +15°C° 0 mm 2 mps 748 mmHg 57%
    01:00 +14°C° 0 mm 2 mps 748 mmHg 59%
    02:00 +14°C° 0 mm 2 mps 748 mmHg 61%
    03:00 +13°C° 0 mm 2 mps 748 mmHg 64%
    04:00 +12°C° 0 mm 1 mps 747 mmHg 71%
    05:00 +13°C° 0 mm 1 mps 747 mmHg 68%
    06:00 +13°C° 0 mm 1 mps 748 mmHg 66%
    07:00 +14°C° 0 mm 1 mps 748 mmHg 64%
    08:00 +19°C° 0 mm 1 mps 747 mmHg 55%
    09:00 +22°C° 0 mm 1 mps 747 mmHg 45%
    10:00 +26°C° 0 mm 1 mps 747 mmHg 36%
    11:00 +29°C° 0 mm 1 mps 746 mmHg 30%
    12:00 +30°C° 0 mm 0 mps 745 mmHg 24%
    13:00 +32°C° 0 mm 0 mps 745 mmHg 17%
    14:00 +33°C° 0 mm 0 mps 744 mmHg 16%
    15:00 +35°C° 0 mm 1 mps 743 mmHg 14%
    16:00 +35°C° 0 mm 1 mps 742 mmHg 13%
    17:00 +33°C° 0 mm 1 mps 742 mmHg 19%
    18:00 +30°C° 0 mm 1 mps 742 mmHg 24%
    19:00 +28°C° 0 mm 1 mps 741 mmHg 30%
    20:00 +27°C° 0 mm 1 mps 741 mmHg 31%
    21:00 +26°C° 0 mm 1 mps 741 mmHg 31%
    22:00 +25°C° 0 mm 1 mps 741 mmHg 32%
    23:00 +25°C° 0.1 mm 1 mps 740 mmHg 34%

    Tomorrow, 20 January, Friday

    Time Temperature Precipitation Wind Pressure Humidity
    00:00 +24°C° 0.1 mm 1 mps 739 mmHg 36%
    01:00 +24°C° 0.1 mm 1 mps 737 mmHg 38%
    02:00 +24°C° 0.2 mm 2 mps 737 mmHg 43%
    03:00 +24°C° 0.2 mm 2 mps 737 mmHg 49%
    04:00 +23°C° 0.2 mm 2 mps 737 mmHg 54%
    05:00 +21°C° 2.5 mm 2 mps 736 mmHg 65%
    06:00 +21°C° 2.5 mm 2 mps 736 mmHg 77%
    07:00 +21°C° 2.5 mm 1 mps 736 mmHg 89%
    08:00 +21°C° 0.9 mm 1 mps 736 mmHg 89%
    09:00 +22°C° 0.9 mm 1 mps 736 mmHg 90%
    10:00 +22°C° 0.9 mm 1 mps 737 mmHg 90%
    11:00 +24°C° 0 mm 2 mps 737 mmHg 76%
    12:00 +26°C° 0 mm 3 mps 737 mmHg 61%
    13:00 +29°C° 0 mm 4 mps 738 mmHg 47%
    14:00 +28°C° 0 mm 4 mps 738 mmHg 46%
    15:00 +27°C° 0 mm 4 mps 739 mmHg 45%
    16:00 +27°C° 0 mm 4 mps 739 mmHg 45%
    17:00 +25°C° 0 mm 4 mps 740 mmHg 49%
    18:00 +22°C° 0 mm 3 mps 741 mmHg 53%
    19:00 +20°C° 0 mm 3 mps 742 mmHg 57%
    20:00 +19°C° 0 mm 3 mps 743 mmHg 62%
    21:00 +17°C° 0 mm 3 mps 744 mmHg 67%
    22:00 +16°C° 0 mm 2 mps 745 mmHg 71%
    23:00 +15°C° 0 mm 2 mps 745 mmHg 73%

    Day after tomorrow, 21 January, Saturday

    Time Temperature Precipitation Wind Pressure Humidity
    00:00 +15°C° 0 mm 2 mps 745 mmHg 75%
    01:00 +14°C° 0 mm 2 mps 746 mmHg 76%
    02:00 +14°C° 0 mm 2 mps 746 mmHg 78%
    03:00 +13°C° 0 mm 2 mps 746 mmHg 79%
    04:00 +13°C° 0 mm 2 mps 746 mmHg 81%
    05:00 +14°C° 0 mm 2 mps 747 mmHg 78%
    06:00 +14°C° 0 mm 2 mps 747 mmHg 75%
    07:00 +15°C° 0 mm 2 mps 748 mmHg 72%
    08:00 +17°C° 0 mm 2 mps 748 mmHg 62%
    09:00 +19°C° 0 mm 2 mps 748 mmHg 53%
    10:00 +23°C° 0 mm 1 mps 748 mmHg 43%
    11:00 +25°C° 0 mm 1 mps 748 mmHg 37%
    12:00 +27°C° 0 mm 1 mps 748 mmHg 32%
    13:00 +29°C° 0 mm 1 mps 747 mmHg 27%
    14:00 +29°C° 0 mm 2 mps 747 mmHg 26%
    15:00 +30°C° 0 mm 2 mps 747 mmHg 26%
    16:00 +30°C° 0 mm 2 mps 747 mmHg 26%
    17:00 +29°C° 0 mm 2 mps 747 mmHg 32%
    18:00 +27°C° 0 mm 2 mps 747 mmHg 37%
    19:00 +26°C° 0 mm 2 mps 747 mmHg 43%
    20:00 +24°C° 0 mm 2 mps 748 mmHg 49%
    21:00 +21°C° 0 mm 2 mps 748 mmHg 56%
    22:00 +19°C° 0 mm 2 mps 749 mmHg 62%
    23:00 +18°C° 0 mm 2 mps 749 mmHg 66%

    22 January, Sunday

    Time Temperature Precipitation Wind Pressure Humidity
    00:00 +18°C° 0 mm 1 mps 748 mmHg 70%
    01:00 +16°C° 0 mm 1 mps 748 mmHg 73%
    02:00 +16°C° 0 mm 1 mps 748 mmHg 75%
    03:00 +15°C° 0 mm 1 mps 748 mmHg 77%
    04:00 +15°C° 0 mm 1 mps 748 mmHg 79%
    05:00 +16°C° 0 mm 1 mps 749 mmHg 75%
    06:00 +18°C° 0 mm 1 mps 749 mmHg 71%
    07:00 +19°C° 0 mm 1 mps 749 mmHg 67%
    08:00 +22°C° 0 mm 1 mps 749 mmHg 61%
    09:00 +25°C° 0 mm 1 mps 749 mmHg 54%
    10:00 +27°C° 0 mm 2 mps 749 mmHg 48%
    11:00 +30°C° 0 mm 1 mps 749 mmHg 41%
    12:00 +32°C° 0 mm 1 mps 748 mmHg 34%
    13:00 +34°C° 0 mm 1 mps 748 mmHg 27%
    14:00 +35°C° 0 mm 1 mps 747 mmHg 25%
    15:00 +35°C° 0 mm 1 mps 747 mmHg 23%
    16:00 +36°C° 0 mm 1 mps 746 mmHg 22%
    17:00 +34°C° 0 mm 1 mps 746 mmHg 27%
    18:00 +32°C° 0 mm 1 mps 746 mmHg 32%
    19:00 +30°C° 0 mm 1 mps 746 mmHg 38%
    20:00 +28°C° 0 mm 1 mps 746 mmHg 41%
    21:00 +27°C° 0 mm 1 mps 746 mmHg 44%
    22:00 +25°C° 0 mm 1 mps 746 mmHg 47%
    23:00 +24°C° 0 mm 1 mps 746 mmHg 49%

    23 January, Monday

    Time Temperature Precipitation Wind Pressure Humidity
    00:00 +24°C° 0 mm 1 mps 746 mmHg 51%
    01:00 +23°C° 0 mm 1 mps 745 mmHg 53%
    02:00 +23°C° 0 mm 1 mps 745 mmHg 54%
    03:00 +23°C° 0 mm 1 mps 745 mmHg 54%
    04:00 +23°C° 0 mm 1 mps 744 mmHg 55%
    05:00 +24°C° 0 mm 1 mps 744 mmHg 53%
    06:00 +24°C° 0 mm 2 mps 744 mmHg 51%
    07:00 +25°C° 0 mm 2 mps 745 mmHg 49%
    08:00 +28°C° 0 mm 2 mps 744 mmHg 44%
    09:00 +31°C° 0 mm 2 mps 744 mmHg 38%
    10:00 +34°C° 0 mm 2 mps 744 mmHg 33%
    11:00 +37°C° 0 mm 2 mps 743 mmHg 30%
    12:00 +39°C° 0 mm 2 mps 742 mmHg 26%
    13:00 +41°C° 0 mm 2 mps 741 mmHg 22%
    14:00 +42°C° 0 mm 3 mps 741 mmHg 20%
    15:00 +43°C° 0 mm 3 mps 740 mmHg 19%
    16:00 +44°C° 0 mm 3 mps 739 mmHg 17%
    17:00 +41°C° 0 mm 2 mps 739 mmHg 21%
    18:00 +39°C° 0 mm 2 mps 739 mmHg 24%
    19:00 +36°C° 0 mm 1 mps 739 mmHg 27%
    20:00 +36°C° 0.1 mm 2 mps 740 mmHg 33%
    21:00 +35°C° 0.1 mm 3 mps 740 mmHg 39%
    22:00 +34°C° 0.1 mm 3 mps 741 mmHg 44%
    23:00 +31°C° 1.5 mm 3 mps 741 mmHg 59%

    24 January, Tuesday

    Time Temperature Precipitation Wind Pressure Humidity
    00:00 +29°C° 1.5 mm 2 mps 741 mmHg 74%
    01:00 +27°C° 1.5 mm 1 mps 741 mmHg 89%
    02:00 +27°C° 0.5 mm 1 mps 742 mmHg 91%
    03:00 +26°C° 0.5 mm 1 mps 742 mmHg 92%
    04:00 +26°C° 0.5 mm 2 mps 743 mmHg 93%
    05:00 +25°C° 0 mm 2 mps 744 mmHg 90%
    06:00 +24°C° 0 mm 2 mps 745 mmHg 86%
    07:00 +22°C° 0 mm 3 mps 746 mmHg 82%
    08:00 +24°C° 0 mm 3 mps 746 mmHg 73%
    09:00 +24°C° 0 mm 3 mps 747 mmHg 64%
    10:00 +25°C° 0 mm 3 mps 748 mmHg 54%
    11:00 +26°C° 0 mm 3 mps 748 mmHg 48%
    12:00 +27°C° 0 mm 3 mps 748 mmHg 42%
    13:00 +28°C° 0 mm 3 mps 748 mmHg 36%
    14:00 +28°C° 0 mm 3 mps 748 mmHg 35%
    15:00 +27°C° 0 mm 3 mps 748 mmHg 34%
    16:00 +27°C° 0 mm 3 mps 748 mmHg 33%
    17:00 +26°C° 0 mm 3 mps 749 mmHg 37%
    18:00 +24°C° 0 mm 3 mps 750 mmHg 41%
    19:00 +21°C° 0 mm 3 mps 751 mmHg 45%
    20:00 +20°C° 0 mm 3 mps 751 mmHg 49%
    21:00 +18°C° 0 mm 3 mps 752 mmHg 53%
    22:00 +16°C° 0 mm 3 mps 753 mmHg 57%
    23:00 +16°C° 0 mm 3 mps 753 mmHg 59%
    Show more